EUTELSAT 8 WEST B

Last updated on Fri Jul 11 2025 00:02:44 GMT+0000 (Coordinated Universal Time)

1 40875U 15039B 25191.55999461 -.00000053 00000+0 00000+0 0 9995 2 40875 0.0636 352.0048 0003645 116.4005 13.9075 1.00271560 36239
UTC large
Height (km)
Speed (km/s)
/
Latitude / Longitude
Inclination (degrees)
Orbital Period (minutes)
Azimuth
Elevation
Range (km)
Doppler Factor

Next 0 passes for location: London (51.5072 / 0.1276)

Sorry there are no passes over London.